This demonstration page uses our WeatherBlox Daily Observations layout. Learn more.

Left ArrowRight Arrow

40.92945, -100.16068

Hourly Observations for July 19, 2020

Temp ( °F °C ) Dew Point ( °F °C ) Humidity (%) Winds ( mph kmh ) Pressure ( in mb ) Visibility ( mi km ) Precip ( " mm )
12:15 am 00:15 Partly Cloudy 72 22.4 67 19.2 82 82 NE 3 6 29.94 1014 10 16.0934 0 0
12:35 am 00:35 Partly Cloudy 71 21.5 66 19.1 86 86 Calm 29.96 1015 10 16.0934 0 0
12:55 am 00:55 Clear 69 20.4 66 18.7 90 90 Calm 29.96 1015 10 16.0934 0 0
1:15 am 01:15 Clear 69 20.3 66 18.9 92 92 Calm 29.95 1014 10 16.0934 0 0
1:35 am 01:35 Clear 68 20 66 18.9 93 93 Calm 29.95 1014 10 16.0934 0 0
1:55 am 01:55 Clear 69 20.5 65 18.6 89 89 E 3 6 29.95 1014 10 16.0934 0 0
2:15 am 02:15 Clear 68 20.2 64 18 87 87 Calm 29.96 1015 10 16.0934 0 0
2:35 am 02:35 Clear 68 20.2 65 18.3 89 89 E 3 6 29.95 1014 10 16.0934 0 0
2:55 am 02:55 Clear 68 19.8 65 18.5 92 92 NE 5 7 29.95 1014 10 16.0934 0 0
3:15 am 03:15 Mostly Cloudy 68 20.1 66 18.7 92 92 SSE 5 7 29.98 1015 10 16.0934 0 0
3:35 am 03:35 Cloudy 70 21.2 66 19.1 88 88 SE 5 7 29.96 1015 10 16.0934 0 0
3:55 am 03:55 Partly Cloudy 70 21.2 66 19 87 87 Calm 29.96 1015 10 16.0934 0 0
4:15 am 04:15 Mostly Cloudy 70 20.9 66 18.7 87 87 E 6 9 29.96 1015 10 16.0934 0 0
4:35 am 04:35 Partly Cloudy 68 20 66 18.7 92 92 ENE 6 9 29.96 1015 10 16.0934 0 0
4:55 am 04:55 Mostly Cloudy 68 20.1 66 18.8 92 92 Calm 29.95 1014 10 16.0934 0 0
5:15 am 05:15 Partly Cloudy with Nearby Thunderstorms 68 20.1 66 18.7 92 92 ENE 5 7 29.95 1014 10 16.0934 0 0
5:35 am 05:35 Mostly Cloudy with Thunderstorms 68 20.1 66 18.8 92 92 Calm 29.96 1015 10 16.0934 0 0
5:55 am 05:55 Cloudy 69 20.5 66 18.7 89 89 Calm 29.95 1014 10 16.0934 0 0
6:15 am 06:15 Partly Cloudy 68 20 66 18.7 92 92 Calm 29.95 1014 10 16.0934 0 0
6:35 am 06:35 Sunny 67 19.7 65 18.4 92 92 Calm 29.95 1014 10 16.0934 0 0
6:55 am 06:55 Partly Cloudy 66 18.9 65 18.1 95 95 NNE 5 7 29.96 1015 10 16.0934 0 0
7:15 am 07:15 Partly Cloudy with Nearby Thunderstorms 66 18.8 65 18.1 96 96 Calm 29.96 1015 7 11.26538 0 0
7:35 am 07:35 Cloudy 67 19.6 65 18.6 94 94 Calm 29.97 1015 10 16.0934 0 0
7:55 am 07:55 Cloudy 69 20.5 65 18.6 89 89 Calm 29.97 1015 10 16.0934 0 0
8:15 am 08:15 Cloudy 70 21.1 65 18.5 85 85 Calm 29.96 1015 10 16.0934 0 0
8:35 am 08:35 Cloudy 71 21.9 62 16.5 72 72 Calm 29.95 1014 10 16.0934 0 0
8:55 am 08:55 Cloudy 71 21.6 62 16.6 73 73 Calm 29.96 1014 10 16.0934 0 0
9:15 am 09:15 Cloudy 72 22.3 63 17.3 73 73 WNW 6 9 29.95 1014 10 16.0934 0 0
9:35 am 09:35 Mostly Cloudy 74 23.4 64 17.5 70 70 Calm 29.94 1014 10 16.0934 0 0
9:55 am 09:55 Mostly Cloudy 74 23.6 65 18.1 71 71 Calm 29.95 1014 10 16.0934 0 0
10:15 am 10:15 Cloudy 75 23.8 64 18 70 70 WSW 3 6 29.96 1015 10 16.0934 0 0
10:35 am 10:35 Cloudy 76 24.7 64 18 66 66 S 3 6 29.95 1014 10 16.0934 0 0
10:55 am 10:55 Mostly Cloudy 79 26 65 18.1 62 62 SW 3 6 29.93 1014 10 16.0934 0 0
11:15 am 11:15 Partly Cloudy 79 26.1 65 18.1 61 61 WSW 3 6 29.93 1014 10 16.0934 0 0
11:35 am 11:35 Sunny 81 27.3 64 18 57 57 S 3 6 29.92 1013 10 16.0934 0 0
11:55 am 11:55 Sunny 82 27.8 65 18.3 56 56 SSE 6 9 29.92 1013 10 16.0934 0 0
12:15 pm 12:15 Partly Cloudy 84 29 66 18.9 54 54 SSE 9 15 29.9 1012 10 16.0934 0 0
12:35 pm 12:35 Mostly Cloudy 83 28.5 67 19.3 57 57 E 9 15 29.9 1013 10 16.0934 0 0
12:55 pm 12:55 Mostly Cloudy 84 28.8 64 18 52 52 E 10 17 29.89 1012 10 16.0934 0 0
1:15 pm 13:15 Sunny 85 29.2 65 18.2 52 52 ESE 8 13 29.89 1012 10 16.0934 0 0
1:35 pm 13:35 Mostly Cloudy 86 30 57 14.1 38 38 SE 14 22 29.88 1012 10 16.0934 0 0
1:55 pm 13:55 Mostly Cloudy 86 30.2 59 14.9 39 39 SSE 14 22 29.87 1011 10 16.0934 0 0
2:15 pm 14:15 Partly Cloudy 88 31 56 13.2 34 34 SSE 16 26 29.86 1011 10 16.0934 0 0
2:35 pm 14:35 Sunny 88 31 58 14.2 36 36 SE 13 20 29.85 1011 10 16.0934 0 0
2:55 pm 14:55 Sunny 88 30.9 59 15 38 38 SE 13 20 29.85 1011 10 16.0934 0 0
3:15 pm 15:15 Sunny 88 31.1 59 15.1 38 38 SE 15 24 29.84 1011 10 16.0934 0 0
3:35 pm 15:35 Partly Cloudy 88 31.2 62 16.9 42 42 SSE 14 22 29.84 1010 10 16.0934 0 0
3:55 pm 15:55 Partly Cloudy 88 31.2 61 16.2 40 40 SE 16 26 29.84 1010 10 16.0934 0 0
4:15 pm 16:15 Sunny 87 30.8 61 16.3 42 42 SE 16 26 29.83 1010 10 16.0934 0 0
4:35 pm 16:35 Sunny 87 30.4 63 17.3 45 45 ESE 16 26 29.83 1010 10 16.0934 0 0
4:55 pm 16:55 Sunny 88 31.2 65 18.4 46 46 SE 14 22 29.81 1009 10 16.0934 0 0
5:15 pm 17:15 Partly Cloudy 87 30.8 65 18.6 48 48 SE 16 26 29.81 1010 10 16.0934 0 0
5:35 pm 17:35 Partly Cloudy 87 30.5 65 18.6 49 49 SE 14 22 29.82 1010 10 16.0934 0 0
5:55 pm 17:55 Mostly Cloudy 86 29.9 66 18.7 51 51 SE 13 20 29.82 1010 10 16.0934 0 0
6:15 pm 18:15 Cloudy 84 29.1 67 19.3 56 56 ESE 13 20 29.83 1010 10 16.0934 0 0
6:35 pm 18:35 Cloudy 84 28.8 67 19.4 57 57 ESE 12 19 29.82 1010 10 16.0934 0 0
6:55 pm 18:55 Mostly Cloudy 85 29.6 66 19.1 53 53 ESE 13 20 29.81 1010 10 16.0934 0 0
7:15 pm 19:15 Partly Cloudy 85 29.3 67 19.6 56 56 ESE 12 19 29.8 1009 10 16.0934 0 0
7:35 pm 19:35 Mostly Cloudy 83 28.4 68 20.1 61 61 ESE 14 22 29.81 1010 10 16.0934 0 0
7:55 pm 19:55 Partly Cloudy 83 28.6 68 20.2 60 60 SE 13 20 29.8 1009 10 16.0934 0 0
8:15 pm 20:15 Sunny 83 28.1 67 19.2 58 58 SSE 13 20 29.8 1009 10 16.0934 0 0
8:35 pm 20:35 Sunny 81 27.1 67 19.5 63 63 SSE 9 15 29.82 1010 10 16.0934 0 0
8:55 pm 20:55 Sunny 80 26.8 67 19.3 64 64 SE 8 13 29.85 1011 10 16.0934 0 0
9:15 pm 21:15 Clear 80 26.5 67 19.7 66 66 ESE 9 15 29.84 1010 10 16.0934 0 0
9:35 pm 21:35 Clear 79 26 69 20.3 71 71 ESE 8 13 29.85 1011 10 16.0934 0 0
9:55 pm 21:55 Clear 78 25.7 69 20.8 74 74 ESE 7 11 29.85 1011 10 16.0934 0 0
10:15 pm 22:15 Clear 78 25.3 70 21.1 78 78 SE 8 13 29.87 1011 10 16.0934 0 0
10:35 pm 22:35 Clear 77 25.2 70 21.2 79 79 SE 12 19 29.87 1011 10 16.0934 0 0
10:55 pm 22:55 Clear with Thunderstorms 76 24.6 70 21.1 81 81 SE 10 17 29.86 1011 10 16.0934 0 0
11:15 pm 23:15 Clear with Nearby Thunderstorms 76 24.6 70 21.1 81 81 SE 14 22 29.86 1011 10 16.0934 0 0
11:35 pm 23:35 Partly Cloudy 76 24.5 70 21.1 81 81 SE 15 24 29.86 1011 10 16.0934 0 0
11:55 pm 23:55 Mostly Cloudy 75 24.1 70 20.9 82 82 SE 18 30 29.87 1011 10 16.0934 0 0

Powered by AerisWeather